Flag for Russia Weather past 2 weeks in Gelendzhik, Russia

Now
64 °F

Clear.


Feels Like: 64 °F
Forecast: 62 / 88 °F
Wind: 6 mph from Southeast

Location: Anapa / Vitiazevo

Current Time: Aug 23, 2014 at 2:27:24 AM

Latest Report: Aug 23, 2014 at 2:00 AM


Visibility: 10 mi

Pressure: 29.98 "Hg

Humidity: 88%

Dew point: 61 °F

Location of GelendzhikLocation

Historic Weather in Gelendzhik — Graph

°F

Gelendzhik temperature yesterday

Maximum temperature yesterday: 88 °F (at 12:30 PM)
Minimum temperature yesterday: 61 °F (at 5:00 AM)
Average temperature yesterday: 77 °F

Past Weeks' High & Low Weather Summary

 TemperatureHumidityPressure
High99 °F (Aug 14, 3:30 PM)94% (Aug 8, 5:00 AM)30.04 "Hg (Aug 8, 5:00 AM)
Low57 °F (Aug 20, 6:30 AM)22% (Aug 9, 2:30 PM)29.50 "Hg (Aug 18, 6:30 AM)
Average79 °F60%29.85 "Hg
* Reported Aug 8 1:00 AM — Aug 23 1:00 AM, Gelendzhik, Weather by CustomWeather, © 2014

Note: Actual official high and low records may vary slightly from our data, if they occured in-between our weather recording intervals... More about our weather records

Advertising

Gelendzhik weather history for previous 24 hours

 ConditionsComfort  
Time TempWeatherWind HumidityBarometerVisibility
1:00 AM
Aug 23
64 °FClear.6 mph83%29.98 "Hg10 mi
12:00 AM66 °FClear.1 mph83%29.98 "Hg10 mi
11:30 PM
Aug 22
68 °FClear.3 mph83%29.98 "Hg10 mi
11:00 PM70 °FClear.1 mph73%29.98 "Hg10 mi
10:30 PM73 °FClear.No wind74%29.98 "Hg10 mi
10:00 PM75 °FClear.3 mph69%29.98 "Hg10 mi
9:30 PM73 °FClear.3 mph69%29.98 "Hg10 mi
9:00 PM77 °FSunny.6 mph65%29.98 "Hg10 mi
8:30 PM77 °FSunny.6 mph65%29.95 "Hg10 mi
8:00 PM79 °FSunny.8 mph61%29.95 "Hg10 mi
7:30 PM81 °FSunny.8 mph54%29.95 "Hg10 mi
7:00 PM82 °FSunny.10 mph55%29.95 "Hg10 mi
6:30 PM82 °FPassing clouds.13 mph55%29.95 "HgN/A
6:00 PM82 °FPassing clouds.15 mph55%29.95 "HgN/A
5:30 PM84 °FPassing clouds.15 mph51%29.95 "HgN/A
5:00 PM84 °FPassing clouds.15 mph48%29.95 "HgN/A
4:30 PM86 °FPassing clouds.15 mph40%29.95 "HgN/A
4:00 PM86 °FPassing clouds.13 mph40%29.95 "HgN/A
3:30 PM88 °FPassing clouds.13 mph33%29.95 "HgN/A
3:00 PM88 °FScattered clouds.13 mph35%29.95 "HgN/A
2:30 PM86 °FPassing clouds.13 mph40%29.95 "HgN/A
2:00 PM88 °FScattered clouds.13 mph38%29.95 "HgN/A
1:30 PM88 °FPassing clouds.10 mph33%29.95 "HgN/A
1:00 PM86 °FPassing clouds.10 mph40%29.95 "HgN/A
12:30 PM88 °FSunny.3 mph38%29.95 "Hg10 mi
12:00 PM86 °FPassing clouds.6 mph38%29.95 "HgN/A
11:30 AM84 °FPassing clouds.3 mph43%29.95 "HgN/A
11:00 AM82 °FPassing clouds.6 mph42%29.95 "HgN/A
10:30 AM82 °FSunny.8 mph48%29.95 "Hg10 mi
10:00 AM81 °FSunny.6 mph51%29.95 "Hg10 mi
9:30 AM79 °FSunny.6 mph48%29.95 "Hg10 mi
9:00 AM75 °FSunny.6 mph57%29.95 "Hg10 mi
8:30 AM72 °FSunny.3 mph61%29.95 "Hg10 mi
8:00 AM68 °FSunny.1 mph69%29.95 "Hg10 mi
7:30 AM66 °FPassing clouds.3 mph68%29.95 "HgN/A
7:00 AM61 °FClear.No wind77%29.92 "Hg10 mi
6:30 AM61 °FClear.3 mph72%29.92 "Hg10 mi
6:00 AM61 °FClear.1 mph72%29.92 "Hg10 mi
5:00 AM61 °FClear.1 mph77%29.92 "Hg10 mi
4:00 AM66 °FClear.3 mph64%29.92 "Hg10 mi
3:00 AM66 °FClear.1 mph64%29.92 "Hg10 mi
2:00 AM70 °FClear.1 mph57%29.92 "Hg10 mi
Weather by CustomWeather, © 2014

See weather overviewHow to use our weather pages